Weather History for West Memphis, AR

Change the Weather History Date:

Thursday, November 14, 2013

  Actual Average Record
Temperature  
Mean Temperature 40 °F -  
Max Temperature 55 °F 62 °F 80 °F (1964)
Min Temperature 24 °F 41 °F 22 °F (1986)
Degree Days  
Heating Degree Days 26    
Moisture  
Dew Point 23 °F    
Average Humidity 61    
Maximum Humidity 96    
Minimum Humidity 27    
Precipitation  
Precipitation 0.00 in - - ()
Sea Level Pressure  
Sea Level Pressure 30.33 in    
Wind  
Wind Speed 3 mph (South)    
Max Wind Speed 15 mph    
Max Gust Speed 22 mph    
Visibility 10 miles    
Events      
Averages and records for this station are not official NWS values.
T = Trace of Precipitation, MM = Missing Value Source: NWS Daily Summary

Daily Weather History Graph

Daily Weather History Graph

Search for Another Location

Airport:

Trip Planner

Search our weather history database for the weather conditions in past years. The results will help you decide how hot, cold, wet, or windy it might be!

Date:

Astronomy

Nov. 14, 2013 Rise Set
Actual Time 6:34 AM CST 4:55 PM CST
Civil Twilight 6:08 AM CST 5:22 PM CST
Nautical Twilight 5:37 AM CST 5:53 PM CST
Astronomical Twilight 5:07 AM CST 6:23 PM CST
Moon 3:11 PM CST (11/14) 3:36 AM CST (11/14)
Length of Visible Light 11h 14m
Length of Day
10h 20m
Waxing Gibbous, 92% of the Moon is Illuminated
Nov 14
Waxing Gibbous
Nov 17
Full
Nov 25
Last Quarter
Dec 2
New
Dec 9
First Quarter

Hourly Weather History & Observations

Time (CST) Temp. Windchill Dew Point Humidity Pressure Visibility Wind Dir Wind Speed Gust Speed Precip Events Conditions
12:53 AM 25.0 °F - 19.9 °F 81% 30.44 in 10.0 mi Calm Calm - N/A   Clear
1:53 AM 26.1 °F - 21.9 °F 84% 30.43 in 10.0 mi Calm Calm - N/A   Clear
2:21 AM 26.6 °F - 21.2 °F 80% 30.41 in 10.0 mi Calm Calm - N/A   Scattered Clouds
2:36 AM 28.4 °F - 21.2 °F 74% 30.41 in 10.0 mi Calm Calm - N/A   Mostly Cloudy
2:48 AM 26.6 °F - 23.0 °F 86% 30.41 in 10.0 mi Calm Calm - N/A   Scattered Clouds
2:53 AM 26.1 °F - 23.0 °F 88% 30.41 in 10.0 mi Calm Calm - N/A   Partly Cloudy
3:18 AM 26.6 °F - 23.0 °F 86% 30.41 in 10.0 mi Calm Calm - N/A   Mostly Cloudy
3:51 AM 24.8 °F - 21.2 °F 86% 30.41 in 10.0 mi Calm Calm - N/A   Scattered Clouds
3:53 AM 25.0 °F - 21.0 °F 85% 30.42 in 10.0 mi Calm Calm - N/A   Partly Cloudy
4:53 AM 24.1 °F - 21.0 °F 88% 30.43 in 10.0 mi Calm Calm - N/A   Clear
5:53 AM 24.1 °F - 23.0 °F 96% 30.42 in 10.0 mi Calm Calm - N/A   Clear
6:53 AM 27.0 °F - 25.0 °F 92% 30.41 in 8.0 mi Calm Calm - N/A   Clear
7:53 AM 34.0 °F 29.8 °F 28.0 °F 79% 30.42 in 10.0 mi South 4.6 mph - N/A   Clear
8:53 AM 42.1 °F 36.6 °F 26.1 °F 53% 30.42 in 10.0 mi South 9.2 mph - N/A   Clear
9:53 AM 48.0 °F - 23.0 °F 37% 30.40 in 10.0 mi South 12.7 mph - N/A   Clear
10:53 AM 52.0 °F - 19.9 °F 28% 30.38 in 10.0 mi SSW 15.0 mph 21.9 mph N/A   Clear
11:53 AM 54.0 °F - 21.9 °F 29% 30.32 in 10.0 mi South 12.7 mph - N/A   Clear
12:53 PM 54.0 °F - 21.9 °F 29% 30.29 in 10.0 mi South 13.8 mph - N/A   Clear
1:53 PM 55.9 °F - 21.9 °F 27% 30.25 in 10.0 mi SSW 11.5 mph - N/A   Clear
2:53 PM 55.9 °F - 21.9 °F 27% 30.23 in 10.0 mi SSE 11.5 mph - N/A   Clear
3:53 PM 55.0 °F - 21.0 °F 27% 30.21 in 10.0 mi South 9.2 mph - N/A   Clear
4:53 PM 48.9 °F - 21.9 °F 35% 30.21 in 10.0 mi South 4.6 mph - N/A   Clear
5:53 PM 42.1 °F - 21.9 °F 45% 30.20 in 10.0 mi Calm Calm - N/A   Clear
6:53 PM 39.9 °F - 23.0 °F 51% 30.21 in 10.0 mi Calm Calm - N/A   Clear
7:53 PM 37.0 °F - 24.1 °F 59% 30.19 in 10.0 mi Calm Calm - N/A   Clear
8:53 PM 39.0 °F 34.0 °F 25.0 °F 57% 30.18 in 10.0 mi SSE 6.9 mph - N/A   Clear
9:53 PM 39.9 °F 36.7 °F 24.1 °F 53% 30.19 in 10.0 mi South 4.6 mph - N/A   Clear
10:53 PM 46.0 °F 40.2 °F 26.1 °F 46% 30.17 in 10.0 mi South 12.7 mph - N/A   Clear
11:53 PM 46.0 °F 41.9 °F 27.0 °F 47% 30.15 in 10.0 mi South 8.1 mph - N/A   Clear